590  
ASUS45 KSLC 021210  
RWRUT  
 
UTAH REGIONAL WEATHER ROUNDUP  
NATIONAL WEATHER SERVICE SALT LAKE CITY UT  
500 AM MST FRI DEC 02 2022  
 
UTZ101>105-107>111-021300-  
 
NORTHERN UTAH  
 
CITY SKY/WX TMP DP RH WIND PRES REMARKS
 
BRIGHAM CITY CLOUDY 26 22 82 MISG 29.93R  
HILL AFB LGT SNOW 25 23 93 N13G23 29.90R FOG WCI 13  
LOGAN LGT SNOW 25 23 92 N10 29.88R FOG WCI 15  
OGDEN LGT SNOW 27 23 85 N10 29.92R FOG WCI 17  
SALT LAKE CITY SNOW 29 27 92 N14 29.93R VSB 1/2 WCI 18  
TOOELE VALLEY SNOW 28 28 100 NW12 29.94R VSB 1/2 WCI 18  
WENDOVER PTCLDY 30 17 58 NW15 29.92R WCI 19  
HEBER CITY FLURRIES 30 23 74 N13 29.74R WCI 20  
WEST JORDAN CLOUDY 27 27 100 N10 29.92R VSB 1/2 WCI 17  
 

 
 
UTZ024>027-106-112>120-021300-  
 
CENTRAL/NORTHEAST UTAH  
 
CITY SKY/WX TMP DP RH WIND PRES REMARKS
 
PROVO AIRPORT LGT SNOW 30 27 86 N26G36 29.87R FOG WCI 16  
MOAB/CANYONLAN MOCLDY 50 21 32 SW33G41 29.72R  
DELTA CLOUDY 30 28 93 N26G35 29.83R WCI 16  
MANTI CLOUDY 37 32 81 SW12 29.74S WCI 30  
PRICE CLOUDY 33 24 69 N6 29.70S WCI 28  
ROOSEVELT N/A 28 14 54 N3 29.70S  
DUCHESNE CLOUDY 32 30 93 E1 29.65F  
VERNAL LGT SNOW 27 23 85 NW3 29.68S FOG  
 

 
 
UTZ121>131-021300-  
 
SOUTHERN UTAH  
 
CITY SKY/WX TMP DP RH WIND PRES REMARKS
 
BRYCE CANYON CLOUDY 32 26 78 SW14G21 29.89R WCI 22  
CEDAR CITY CLOUDY 39 32 76 SW20 29.88R WCI 29  
MILFORD MOCLDY 37 32 82 S22G31 29.83R WCI 26  
PANGUITCH N/A 34 28 80 S17G24 29.88R WCI 23  
ST GEORGE CLOUDY 52 35 52 N6 29.90R  
HANKSVILLE MOCLDY 50 27 40 SW25G35 29.77F  
KANAB CLOUDY 39 37 93 CALM 29.97R  
BLANDING N/A 44 24 45 SW20G32 29.95F  
 

 
 
REGIONAL REPORTS COLORADO/ARIZONA  
 
CITY SKY/WX TMP DP RH WIND PRES REMARKS
 
CRAIG, CO NOT AVBL  
GRAND JUNCTION CLOUDY 47 26 44 S14G28 29.75R  
RIFLE, CO CLOUDY 47 22 37 SW25G46 29.73R  
MONTROSE, CO LGT RAIN 43 28 55 S30G53 29.77R  
CORTEZ, CO CLOUDY 45 22 40 SW7 29.95S  
COLORADO CITY CLOUDY 41 36 81 SW8 29.96S  
PAGE, AZ PTCLDY 50 28 42 SW13G22 29.88R  
GRAND CANYON CLOUDY 38 27 64 SW18G26 30.01R WCI 28  
KINGMAN, AZ CLOUDY 51 37 58 S8 29.99R  
FLAGSTAFF, AZ CLOUDY 38 28 67 SW22G31 30.05R WCI 27  
 

 
 
REGIONAL REPORTS NEVADA/IDAHO/WYOMING  
 
CITY SKY/WX TMP DP RH WIND PRES REMARKS
 
LAS VEGAS, NV MOCLDY 53 36 52 SW16G35 29.90S  
ELY, NY PTCLDY 18 16 92 NW6 29.92R WCI 10  
ELKO, NV CLOUDY 24 18 77 SW8 29.95R WCI 15  
POCATELLO, ID MOCLDY 24 17 74 SW24G36 29.83R WCI 8  
BURLEY, ID PTCLDY 21 14 74 W13 29.88R WCI 9  
EVANSTON, WY LGT SNOW 20 16 84 W12 29.77R FOG WCI 8  
ROCK SPRINGS, FLURRIES 26 24 92 W23G29 29.60R WCI 11  
KEMMERER, WY SNOW 19 16 86 MISG 29.69R VSB 1/2  
 

 
 
 
CLICK HERE TO GO TO PREVIOUS BULLETINS.

The Nexlab UT Page Main Text Page